Location: Killam
(52.7910°N, 111.8608°W)
Time: 12:58:38
(UTC+00:00)

Vanguard 2 Rocket - Pass Details

Date: 16 February 2026
Orbit: 553 x 3286 km, 32.9° (Epoch: 9 March)

Event Time Altitude Azimuth Distance (km) Brightness Sun altitude
Rises 01:21:38 0° 260° (W) 5,653 13.7 -6.9°
Reaches altitude 10° 01:28:26 10° 238° (WSW) 3,934 11.4 -7.9°
Maximum altitude 01:32:19 13° 215° (SW) 3,266 10.4 -8.5°
Drops below altitude 10° 01:35:32 10° 190° (S) 3,122 9.9 -8.9°
Sets 01:39:38 0° 162° (SSE) 3,611 9.9 -9.5°
